Time,TemperatureF,DewpointF,PressureIn,WindDirection,WindDirectionDegrees,WindSpeedMPH,WindSpeedGustMPH,Humidity,HourlyPrecipIn,Conditions,Clouds,dailyrainin,SoftwareType,DateUTC
2018-01-22 00:03:00,62.3,60.8,29.77,North,0,0.0,0.0,95,0.00,,---,0.00,VWS V15.00,2018-01-22 06:03:00,
2018-01-22 00:08:00,62.0,60.6,29.77,North,0,0.0,0.0,95,0.00,,---,0.00,VWS V15.00,2018-01-22 06:08:00,
2018-01-22 00:14:00,61.6,60.2,29.77,North,0,0.0,0.0,95,0.00,,---,0.00,VWS V15.00,2018-01-22 06:14:00,
2018-01-22 00:19:00,61.3,59.9,29.78,North,0,0.0,0.0,95,0.00,,---,0.00,VWS V15.00,2018-01-22 06:19:00,
2018-01-22 00:24:00,60.9,59.2,29.78,North,0,0.0,0.0,94,0.00,,---,0.00,VWS V15.00,2018-01-22 06:24:00,
2018-01-22 00:39:00,59.6,56.4,29.78,North,0,0.0,0.0,89,0.00,,---,0.00,VWS V15.00,2018-01-22 06:39:00,
2018-01-22 00:44:00,59.2,54.7,29.78,North,0,0.0,0.0,85,0.00,,---,0.00,VWS V15.00,2018-01-22 06:44:00,
2018-01-22 00:49:00,58.7,52.2,29.78,North,0,0.0,0.0,79,0.00,,---,0.00,VWS V15.00,2018-01-22 06:49:00,
2018-01-22 00:54:00,58.4,51.2,29.78,North,0,0.0,0.0,77,0.00,,---,0.00,VWS V15.00,2018-01-22 06:54:00,
2018-01-22 00:59:00,58.3,50.8,29.78,North,0,0.0,0.0,76,0.00,,---,0.00,VWS V15.00,2018-01-22 06:59:00,
2018-01-22 01:09:00,57.8,49.6,29.78,North,0,0.0,0.0,74,0.00,,---,0.00,VWS V15.00,2018-01-22 07:09:00,
2018-01-22 01:29:00,56.9,48.3,29.79,North,0,0.0,0.0,73,0.00,,---,0.00,VWS V15.00,2018-01-22 07:29:00,
2018-01-22 01:34:00,56.6,47.3,29.80,North,0,0.0,0.0,71,0.00,,---,0.00,VWS V15.00,2018-01-22 07:34:00,
2018-01-22 01:39:00,56.5,46.8,29.80,North,0,0.0,0.0,70,0.00,,---,0.00,VWS V15.00,2018-01-22 07:39:00,
2018-01-22 01:44:00,56.0,45.2,29.80,North,0,0.0,0.0,67,0.00,,---,0.00,VWS V15.00,2018-01-22 07:44:00,
2018-01-22 01:49:00,55.9,44.3,29.80,North,0,0.0,0.0,65,0.00,,---,0.00,VWS V15.00,2018-01-22 07:49:00,
2018-01-22 01:54:00,55.6,43.2,29.80,North,0,0.0,0.0,63,0.00,,---,0.00,VWS V15.00,2018-01-22 07:54:00,
2018-01-22 02:04:00,55.1,42.8,29.79,North,0,0.0,0.0,63,0.00,,---,0.00,VWS V15.00,2018-01-22 08:04:00,
2018-01-22 02:09:00,55.0,41.8,29.79,North,0,0.0,0.0,61,0.00,,---,0.00,VWS V15.00,2018-01-22 08:09:00,
2018-01-22 02:14:00,54.8,40.8,29.79,North,0,0.0,0.0,59,0.00,,---,0.00,VWS V15.00,2018-01-22 08:14:00,
2018-01-22 02:19:00,54.7,39.8,29.79,North,0,0.0,0.0,57,0.00,,---,0.00,VWS V15.00,2018-01-22 08:19:00,
2018-01-22 02:29:00,54.4,39.0,29.79,North,0,0.0,0.0,56,0.00,,---,0.00,VWS V15.00,2018-01-22 08:29:00,
2018-01-22 02:34:00,54.2,37.9,29.80,North,0,0.0,0.0,54,0.00,,---,0.00,VWS V15.00,2018-01-22 08:34:00,
2018-01-22 02:39:00,54.1,37.8,29.80,North,0,0.0,0.0,54,0.00,,---,0.00,VWS V15.00,2018-01-22 08:39:00,
2018-01-22 02:49:00,53.8,36.1,29.80,North,0,0.0,0.0,51,0.00,,---,0.00,VWS V15.00,2018-01-22 08:49:00,
2018-01-22 02:54:00,53.8,36.1,29.80,North,0,0.0,0.0,51,0.00,,---,0.00,VWS V15.00,2018-01-22 08:54:00,
2018-01-22 02:59:00,53.6,34.4,29.80,North,0,0.0,0.0,48,0.00,,---,0.00,VWS V15.00,2018-01-22 08:59:00,
2018-01-22 03:04:00,53.6,34.4,29.80,North,0,0.0,0.0,48,0.00,,---,0.00,VWS V15.00,2018-01-22 09:04:00,